Location: downtown San Diego
(32.7310°N, 117.1990°W)
Time: 13:39:58
(UTC-07:00)

CZ-2C R/B - Pass Details

Date: 12 July 2018
Orbit: 784 x 871 km, 98.4° (Epoch: 21 July)

Event Time Altitude Azimuth Distance (km) Brightness Sun altitude
Rises 22:05:05 0° 29° (NNE) 3,293 6.0 -22.1°
Reaches altitude 10° 22:07:54 10° 43° (NE) 2,352 5.1 -22.5°
Enters shadow 22:10:23 20° 70° (ENE) 1,743 4.1 -22.8°
